Погода в Бирмингеме

Великобритания     52°29′41″N   1°51′05″W
темп.,
°C
ветер,
м/с
пор.,
м/с
влажн.,
%
обл.,
%
осадки,
мм/ч
давл.,
гПа
погр.,
м
19 сентября, вс
вс1901:00+16ююв278494 1.6 1012240
04:00+15ю2587100 0.0 1012138
07:00+15з2395100 0.7 1012265
10:00+15з2586100 0.9 1014357
13:00+18сз2359100 1.5 1014878
16:00+19сз3459100 0.0 10151284
19:00+17ссз4669100 0.1 1016501
22:00+13ссз496797 0.0 1019437
20 сентября, пн
пн2001:00+12сз410815 0.0 1020364
04:00+11сз410855 0.0 1021397
07:00+11ссз378190 0.0 1023221
10:00+15сз35650 0.0 1024424
13:00+18ссз44465 0.0 10241225
16:00+19ссз45435 0.0 10251401
19:00+16ссз36565 0.0 1026501
22:00+14ссз3870100 0.0 1028356
21 сентября, вт
вт2101:00+12сз398538 0.0 1029352
04:00+12зсз268629 0.0 1028224
07:00+11зсз258697 0.0 1029160
10:00+15зсз2473100 0.0 1030385
13:00+19зсз235399 0.0 1029954
16:00+20зсз234657 0.0 10281083
19:00+18зсз115697 0.0 102816
22:00+16ююз126617 0.0 102838
22 сентября, ср
ср2201:00+15юз267964 0.0 1027173
04:00+13ююз278199 0.0 1026215
07:00+13ююз378460 0.0 1025193
10:00+17зюз476481 0.0 1025448
13:00+20зюз465150 0.0 1023968
16:00+21зюз575250 0.0 10211147
19:00+18з476535 0.0 1021832
22:00+14з387267 0.0 1021324
23 сентября, чт
чт2301:00+14ссз4877100 0.0 1021772
04:00+12ссз4105946 0.0 1022556
07:00+10ссз3769100 0.0 1022389
10:00+12сз3561100 0.0 1022618
13:00+15зсз4546100 0.0 10201202
16:00+17з574589 0.0 10181299
19:00+14зюз5105581 0.0 1016661
22:00+12зюз514724 0.0 1015599